User: anonymous   Login
Location: Fort Wayne
(41.1310°N, 85.1290°W)
Time: 15:07:54
(UTC-04:00)
Language:

MetOp-A - Orbit

View from above orbital plane
View from above orbital plane
View from above satellite
View from above satellite

Ground track
Ground track

The orbit data is extracted from the following two-line orbital elements,

1 29499U 06044A   15142.46593744  .00000098  00000-0  64481-4 0  9996
2 29499 098.6776 202.2440 0000885 140.6259 216.2443 14.21502204445624
Epoch (UTC): 22 May 2015 11:10:56
Eccentricity: 0.0000885
inclination: 98.6776°
perigee height: 819 km
apogee height: 821 km
right ascension of ascending node: 202.2440°
argument of perigee: 140.6259°
revolutions per day: 14.21502204
mean anomaly at epoch: 216.2443°
orbit number at epoch: 44562

The dashed part of the orbit path shows where the satellite is in the earth's shadow,  

DLR